• Em Portugal
  • Lista de países
  • Para 7 dias
  • Temperatura da água
  • Mapas de satélite
  • Mapa do tempo
  • Widgets de tempo
  • user-avatar
    Iniciar Sessão

    Previsão horária em Gotelp

    Hoje, 15 Agosto, Quarta-feira

    Tempo Temperatura Precipitação Vento Pressão Humidade
    00:00 +17°C° 0 mm 2 m/s 746 mmHg 86%
    01:00 +17°C° 0 mm 2 m/s 746 mmHg 88%
    02:00 +17°C° 0 mm 3 m/s 746 mmHg 89%
    03:00 +17°C° 0 mm 3 m/s 746 mmHg 91%
    04:00 +17°C° 0 mm 3 m/s 746 mmHg 93%
    05:00 +17°C° 0 mm 4 m/s 747 mmHg 90%
    06:00 +18°C° 0 mm 4 m/s 747 mmHg 86%
    07:00 +19°C° 0 mm 4 m/s 747 mmHg 82%
    08:00 +20°C° 0,1 mm 4 m/s 748 mmHg 78%
    09:00 +21°C° 0,1 mm 5 m/s 748 mmHg 74%
    10:00 +22°C° 0,1 mm 5 m/s 749 mmHg 69%
    11:00 +22°C° 0,4 mm 5 m/s 749 mmHg 68%
    12:00 +23°C° 0,4 mm 5 m/s 749 mmHg 66%
    13:00 +23°C° 0 mm 5 m/s 750 mmHg 65%
    14:00 +23°C° 0,3 mm 5 m/s 750 mmHg 63%
    15:00 +23°C° 0,3 mm 5 m/s 750 mmHg 62%
    16:00 +23°C° 0,3 mm 4 m/s 750 mmHg 60%
    17:00 +22°C° 0 mm 4 m/s 751 mmHg 65%
    18:00 +21°C° 0 mm 3 m/s 751 mmHg 69%
    19:00 +19°C° 0 mm 2 m/s 751 mmHg 74%
    20:00 +18°C° 0 mm 2 m/s 751 mmHg 78%
    21:00 +17°C° 0 mm 2 m/s 751 mmHg 82%
    22:00 +16°C° 0 mm 1 m/s 752 mmHg 86%
    23:00 +16°C° 0 mm 1 m/s 752 mmHg 87%

    Amanhã, 16 Agosto, Quinta-feira

    Tempo Temperatura Precipitação Vento Pressão Humidade
    00:00 +16°C° 0 mm 1 m/s 752 mmHg 88%
    01:00 +15°C° 0 mm 1 m/s 752 mmHg 90%
    02:00 +15°C° 0 mm 1 m/s 752 mmHg 90%
    03:00 +15°C° 0 mm 1 m/s 752 mmHg 91%
    04:00 +15°C° 0 mm 1 m/s 752 mmHg 91%
    05:00 +16°C° 0 mm 1 m/s 752 mmHg 86%
    06:00 +18°C° 0 mm 1 m/s 753 mmHg 80%
    07:00 +20°C° 0 mm 1 m/s 753 mmHg 75%
    08:00 +21°C° 0 mm 1 m/s 753 mmHg 68%
    09:00 +23°C° 0 mm 1 m/s 753 mmHg 61%
    10:00 +25°C° 0 mm 1 m/s 753 mmHg 55%
    11:00 +26°C° 0 mm 1 m/s 753 mmHg 52%
    12:00 +26°C° 0 mm 1 m/s 753 mmHg 49%
    13:00 +27°C° 0 mm 1 m/s 753 mmHg 46%
    14:00 +27°C° 0 mm 1 m/s 753 mmHg 48%
    15:00 +27°C° 0 mm 1 m/s 752 mmHg 49%
    16:00 +26°C° 0 mm 1 m/s 752 mmHg 50%
    17:00 +25°C° 0 mm 1 m/s 752 mmHg 54%
    18:00 +24°C° 0 mm 1 m/s 752 mmHg 57%
    19:00 +23°C° 0 mm 1 m/s 752 mmHg 61%
    20:00 +22°C° 0 mm 1 m/s 752 mmHg 63%
    21:00 +21°C° 0 mm 1 m/s 752 mmHg 66%
    22:00 +19°C° 0 mm 2 m/s 752 mmHg 68%
    23:00 +19°C° 0 mm 2 m/s 752 mmHg 70%

    Depois de amanhã, 17 Agosto, Sexta-feira

    Tempo Temperatura Precipitação Vento Pressão Humidade
    00:00 +19°C° 0 mm 2 m/s 752 mmHg 71%
    01:00 +18°C° 0 mm 2 m/s 752 mmHg 73%
    02:00 +18°C° 0 mm 2 m/s 751 mmHg 74%
    03:00 +17°C° 0 mm 2 m/s 751 mmHg 76%
    04:00 +17°C° 0 mm 2 m/s 751 mmHg 77%
    05:00 +18°C° 0 mm 2 m/s 751 mmHg 74%
    06:00 +19°C° 0 mm 2 m/s 752 mmHg 71%
    07:00 +20°C° 0 mm 2 m/s 752 mmHg 68%
    08:00 +22°C° 0 mm 3 m/s 752 mmHg 62%
    09:00 +25°C° 0 mm 3 m/s 752 mmHg 56%
    10:00 +27°C° 0 mm 3 m/s 752 mmHg 49%
    11:00 +27°C° 0 mm 3 m/s 751 mmHg 47%
    12:00 +28°C° 0 mm 3 m/s 751 mmHg 45%
    13:00 +29°C° 0 mm 3 m/s 751 mmHg 43%
    14:00 +28°C° 0 mm 2 m/s 751 mmHg 45%
    15:00 +28°C° 0 mm 2 m/s 750 mmHg 47%
    16:00 +27°C° 0 mm 2 m/s 750 mmHg 49%
    17:00 +26°C° 0 mm 2 m/s 750 mmHg 53%
    18:00 +25°C° 0 mm 2 m/s 750 mmHg 56%
    19:00 +24°C° 0 mm 2 m/s 750 mmHg 59%
    20:00 +24°C° 0 mm 2 m/s 750 mmHg 60%
    21:00 +24°C° 0 mm 2 m/s 750 mmHg 61%
    22:00 +23°C° 0 mm 2 m/s 750 mmHg 61%
    23:00 +23°C° 0 mm 2 m/s 750 mmHg 62%

    18 Agosto, Sábado

    Tempo Temperatura Precipitação Vento Pressão Humidade
    00:00 +23°C° 0 mm 2 m/s 750 mmHg 62%
    01:00 +23°C° 0 mm 2 m/s 750 mmHg 63%
    02:00 +21°C° 0 mm 2 m/s 750 mmHg 63%
    03:00 +21°C° 0 mm 2 m/s 750 mmHg 64%
    04:00 +21°C° 0 mm 2 m/s 750 mmHg 65%
    05:00 +21°C° 0 mm 2 m/s 750 mmHg 65%
    06:00 +21°C° 0 mm 2 m/s 750 mmHg 65%
    07:00 +23°C° 0 mm 1 m/s 751 mmHg 65%
    08:00 +24°C° 0,1 mm 2 m/s 751 mmHg 61%
    09:00 +26°C° 0,1 mm 2 m/s 751 mmHg 57%
    10:00 +27°C° 0,1 mm 2 m/s 751 mmHg 53%
    11:00 +27°C° 0,4 mm 2 m/s 751 mmHg 55%
    12:00 +27°C° 0,4 mm 2 m/s 751 mmHg 57%
    13:00 +27°C° 0,4 mm 2 m/s 751 mmHg 59%
    14:00 +27°C° 0,4 mm 2 m/s 751 mmHg 58%
    15:00 +27°C° 0,4 mm 2 m/s 751 mmHg 58%
    16:00 +27°C° 0,4 mm 2 m/s 751 mmHg 58%
    17:00 +25°C° 0,5 mm 2 m/s 751 mmHg 66%
    18:00 +24°C° 0,5 mm 3 m/s 752 mmHg 74%
    19:00 +21°C° 0,5 mm 3 m/s 752 mmHg 81%
    20:00 +20°C° 0,1 mm 3 m/s 752 mmHg 84%
    21:00 +19°C° 0,1 mm 3 m/s 752 mmHg 86%
    22:00 +18°C° 0,1 mm 2 m/s 752 mmHg 89%
    23:00 +17°C° 0 mm 2 m/s 753 mmHg 88%

    19 Agosto, Domingo

    Tempo Temperatura Precipitação Vento Pressão Humidade
    00:00 +16°C° 0 mm 2 m/s 753 mmHg 86%
    01:00 +16°C° 0 mm 2 m/s 753 mmHg 85%
    02:00 +15°C° 0 mm 2 m/s 753 mmHg 83%
    03:00 +15°C° 0 mm 2 m/s 753 mmHg 82%
    04:00 +15°C° 0 mm 2 m/s 753 mmHg 80%
    05:00 +16°C° 0 mm 2 m/s 753 mmHg 77%
    06:00 +17°C° 0 mm 2 m/s 753 mmHg 73%
    07:00 +18°C° 0 mm 2 m/s 754 mmHg 69%
    08:00 +20°C° 0 mm 3 m/s 754 mmHg 64%
    09:00 +22°C° 0 mm 3 m/s 754 mmHg 58%
    10:00 +23°C° 0 mm 4 m/s 754 mmHg 53%
    11:00 +25°C° 0 mm 4 m/s 754 mmHg 53%
    12:00 +25°C° 0 mm 4 m/s 754 mmHg 52%
    13:00 +26°C° 0 mm 4 m/s 754 mmHg 52%
    14:00 +26°C° 0,1 mm 4 m/s 754 mmHg 55%
    15:00 +25°C° 0,1 mm 4 m/s 753 mmHg 57%
    16:00 +25°C° 0,1 mm 4 m/s 753 mmHg 60%
    17:00 +24°C° 0 mm 3 m/s 753 mmHg 66%
    18:00 +23°C° 0 mm 2 m/s 753 mmHg 71%
    19:00 +20°C° 0 mm 2 m/s 753 mmHg 77%
    20:00 +21°C° 0 mm 1 m/s 753 mmHg 81%
    21:00 +20°C° 0 mm 1 m/s 753 mmHg 84%
    22:00 +19°C° 0 mm 1 m/s 754 mmHg 88%
    23:00 +18°C° 0 mm 1 m/s 754 mmHg 89%

    20 Agosto, Segunda-feira

    Tempo Temperatura Precipitação Vento Pressão Humidade
    00:00 +18°C° 0 mm 1 m/s 753 mmHg 90%
    01:00 +18°C° 0 mm 1 m/s 753 mmHg 91%
    02:00 +18°C° 0 mm 1 m/s 753 mmHg 92%
    03:00 +16°C° 0 mm 1 m/s 753 mmHg 92%
    04:00 +15°C° 0 mm 0 m/s 753 mmHg 92%
    05:00 +18°C° 0 mm 1 m/s 753 mmHg 87%
    06:00 +19°C° 0 mm 1 m/s 753 mmHg 83%
    07:00 +20°C° 0 mm 2 m/s 753 mmHg 78%
    08:00 +21°C° 0 mm 2 m/s 753 mmHg 71%
    09:00 +24°C° 0 mm 2 m/s 753 mmHg 64%
    10:00 +26°C° 0 mm 3 m/s 753 mmHg 57%
    11:00 +27°C° 0 mm 3 m/s 752 mmHg 54%
    12:00 +27°C° 0 mm 3 m/s 752 mmHg 51%
    13:00 +28°C° 0 mm 3 m/s 752 mmHg 48%
    14:00 +28°C° 0,1 mm 3 m/s 751 mmHg 48%
    15:00 +28°C° 0,1 mm 3 m/s 751 mmHg 48%
    16:00 +28°C° 0,1 mm 3 m/s 751 mmHg 48%
    17:00 +27°C° 0,1 mm 3 m/s 750 mmHg 52%
    18:00 +26°C° 0,1 mm 2 m/s 750 mmHg 57%
    19:00 +24°C° 0,1 mm 2 m/s 750 mmHg 62%
    20:00 +23°C° 0 mm 2 m/s 750 mmHg 66%
    21:00 +23°C° 0 mm 2 m/s 750 mmHg 70%
    22:00 +21°C° 0 mm 2 m/s 750 mmHg 73%
    23:00 +20°C° 0 mm 2 m/s 750 mmHg 77%
    Mostrar mais